Wetterdaten: aktuell Montag, 21.09.2020 17:00
Datum Zeit Temp 2m Temp 2m ob Temp 10cm Feuchte 2 m Regen Wind mittel Richtung Richtung Taupunkt Windben
21.09.2020 17:00 23,5 C 29,1 C 25,7 C 46 % 0,0 l/m 1,8 km/h S-SO 157 11,2 C 0,0 km/h
21.09.2020 16:55 23,5 C 29,1 C 25,7 C 47 % 0,0 l/m 2,3 km/h SW 225 11,5 C 6,1 km/h
21.09.2020 16:50 23,5 C 29,1 C 25,7 C 47 % 0,0 l/m 2,6 km/h N-NW 337 11,5 C 3,7 km/h
21.09.2020 16:45 23,4 C 29,1 C 25,7 C 47 % 0,0 l/m 1,8 km/h N-NW 337 11,4 C 4,7 km/h
21.09.2020 16:40 23,5 C 29,2 C 25,8 C 46 % 0,0 l/m 1,1 km/h N-NW 337 11,2 C 3,4 km/h
21.09.2020 16:35 23,5 C 29,2 C 25,9 C 46 % 0,0 l/m 1,1 km/h W-SW 247 11,2 C 0,0 km/h
21.09.2020 16:30 23,5 C 29,1 C 25,9 C 46 % 0,0 l/m 2,1 km/h O-NO 67 11,2 C 0,0 km/h
21.09.2020 16:25 23,5 C 29,1 C 25,9 C 47 % 0,0 l/m 2,9 km/h SW 225 11,5 C 4,5 km/h
21.09.2020 16:20 23,4 C 29,3 C 25,9 C 47 % 0,0 l/m 3,1 km/h NW 315 11,4 C 3,4 km/h
21.09.2020 16:15 23,4 C 29,3 C 26,0 C 47 % 0,0 l/m 2,6 km/h N-NW 337 11,4 C 2,6 km/h
21.09.2020 16:10 23,5 C 29,2 C 26,0 C 48 % 0,0 l/m 1,6 km/h W-SW 247 11,8 C 5,1 km/h
21.09.2020 16:05 23,5 C 29,1 C 25,9 C 46 % 0,0 l/m 1,4 km/h NO 45 11,2 C 0,0 km/h
21.09.2020 16:00 23,5 C 29,2 C 25,9 C 46 % 0,0 l/m 2,9 km/h N-NO 22 11,2 C 2,3 km/h
21.09.2020 15:55 23,5 C 29,4 C 26,1 C 45 % 0,0 l/m 2,6 km/h W-SW 247 10,9 C 0,0 km/h
21.09.2020 15:50 23,5 C 29,5 C 26,1 C 47 % 0,0 l/m 1,6 km/h N 360 11,5 C 3,7 km/h
21.09.2020 15:45 23,5 C 29,4 C 26,1 C 49 % 0,0 l/m 1,3 km/h NO 45 12,2 C 2,3 km/h
21.09.2020 15:40 23,5 C 29,2 C 26,0 C 48 % 0,0 l/m 2,4 km/h O-SO 112 11,8 C 0,0 km/h
21.09.2020 15:35 23,4 C 29,3 C 26,0 C 48 % 0,0 l/m 3,4 km/h S-SO 157 11,8 C 0,0 km/h
21.09.2020 15:30 23,3 C 29,4 C 25,9 C 50 % 0,0 l/m 2,6 km/h NO 45 12,3 C 3,2 km/h
21.09.2020 15:25 23,3 C 29,3 C 25,8 C 49 % 0,0 l/m 2,6 km/h N 360 12,0 C 5,5 km/h
21.09.2020 15:20 23,3 C 29,1 C 25,7 C 49 % 0,0 l/m 2,1 km/h N-NW 337 12,0 C 4,3 km/h
21.09.2020 15:15 23,3 C 28,9 C 25,7 C 48 % 0,0 l/m 1,9 km/h N-NW 337 11,7 C 4,3 km/h
21.09.2020 15:10 23,2 C 28,9 C 25,5 C 49 % 0,0 l/m 2,9 km/h N-NW 337 11,9 C 0,0 km/h
21.09.2020 15:05 23,2 C 29,0 C 25,5 C 49 % 0,0 l/m 3,1 km/h NW 315 11,9 C 0,0 km/h
21.09.2020 15:00 23,1 C 29,2 C 25,6 C 49 % 0,0 l/m 2,1 km/h NO 45 11,8 C 2,9 km/h
21.09.2020 14:55 23,1 C 29,1 C 25,5 C 50 % 0,0 l/m 2,4 km/h W-SW 247 12,1 C 0,0 km/h
_ Min-Zeit 07:25 07:30 07:35 18:00 - 00:45 - - 07:25 19:10
Minimum _ 7,5 C 5,9 C 6,5 C 44 % - 0,0 km/h - - 4,5 C 0,0 km/h
_ Max-Zeit 15:40 15:50 15:45 09:05 18:00 18:30 - - 13:45 13:05
Maximum _ 23,5 C 29,5 C 26,1 C 85 % 0,0 l/m 4,7 km/h
N-NW
- - 12,4 C 10,8 km/h
SW
Durchschnitt _ 15,0 C 16,8 C 15,3 C 65 % #0,0 l/m 1,7 km/h S-SW - 8,0 C 2,0 km/h